| time (UTC) | temp C | wind direction | speed KPH | gust KPH | rain 1hr cm | rain 24hr cm | rain mn cm | humidity % | barometer mb |
| 20260504195034 | 12 | 152 | 1.6 | 3.2 | 0.00 | 0.23 | 0.23 | 75 | 1004.3 |
| 20260504194531 | 12 | 93 | 6.4 | 6.4 | 0.00 | 0.23 | 0.23 | 77 | 1004.5 |
| 20260504194026 | 12 | 71 | 1.6 | 3.2 | 0.00 | 0.23 | 0.23 | 80 | 1004.3 |
| 20260504193523 | 12 | 120 | 3.2 | 6.4 | 0.00 | 0.23 | 0.23 | 81 | 1004.4 |
| 20260504193022 | 12 | 21 | 4.8 | 6.4 | 0.00 | 0.23 | 0.23 | 79 | 1004.6 |
| 20260504192520 | 12 | 73 | 4.8 | 6.4 | 0.00 | 0.23 | 0.23 | 79 | 1004.5 |
| 20260504192018 | 12 | 351 | 1.6 | 4.8 | 0.00 | 0.23 | 0.23 | 79 | 1004.7 |
| 20260504191515 | 12 | 123 | 8.0 | 12.9 | 0.00 | 0.23 | 0.23 | 80 | 1004.7 |
| 20260504191011 | 12 | 150 | 3.2 | 4.8 | 0.00 | 0.23 | 0.23 | 82 | 1004.9 |
| 20260504190507 | 12 | 241 | 3.2 | 11.3 | 0.00 | 0.23 | 0.23 | 82 | 1004.9 |
| 20260504190003 | 12 | 110 | 3.2 | 9.7 | 0.00 | 0.23 | 0.23 | 80 | 1004.8 |
| 20260504185501 | 12 | 98 | 4.8 | 4.8 | 0.00 | 0.23 | 0.23 | 82 | 1005.0 |
| 20260504184957 | 11 | 124 | 3.2 | 6.4 | 0.00 | 0.23 | 0.23 | 83 | 1005.0 |
| 20260504184453 | 11 | 28 | 0.0 | 4.8 | 0.00 | 0.23 | 0.23 | 82 | 1005.2 |
| 20260504183948 | 11 | 275 | 0.0 | 1.6 | 0.00 | 0.23 | 0.23 | 84 | 1005.1 |
| 20260504183446 | 11 | 324 | 0.0 | 0.0 | 0.00 | 0.23 | 0.23 | 86 | 1005.2 |
| 20260504182944 | 10 | 324 | 0.0 | 0.0 | 0.00 | 0.23 | 0.23 | 85 | 1005.0 |
| 20260504182440 | 10 | 291 | 0.0 | 3.2 | 0.00 | 0.23 | 0.23 | 87 | 1005.3 |
| 20260504181938 | 10 | 209 | 3.2 | 4.8 | 0.00 | 0.23 | 0.23 | 86 | 1005.2 |
| 20260504181434 | 10 | 107 | 3.2 | 6.4 | 0.00 | 0.23 | 0.23 | 88 | 1005.2 |
| 20260504180933 | 10 | 139 | 6.4 | 6.4 | 0.00 | 0.23 | 0.23 | 88 | 1005.0 |
| 20260504180432 | 9 | 161 | 4.8 | 4.8 | 0.00 | 0.23 | 0.23 | 87 | 1005.4 |
| 20260504175930 | 9 | 141 | 3.2 | 4.8 | 0.00 | 0.23 | 0.23 | 91 | 1005.3 |
| 20260504175426 | 9 | 94 | 3.2 | 3.2 | 0.00 | 0.23 | 0.23 | 92 | 1005.3 |
| 20260504174924 | 9 | 98 | 0.0 | 4.8 | 0.00 | 0.23 | 0.23 | 93 | 1005.5 |
| 20260504174421 | 8 | 164 | 1.6 | 3.2 | 0.00 | 0.23 | 0.23 | 93 | 1005.3 |
| 20260504173919 | 8 | 78 | 1.6 | 3.2 | 0.00 | 0.23 | 0.23 | 93 | 1005.3 |
| 20260504173415 | 8 | 234 | 1.6 | 3.2 | 0.00 | 0.23 | 0.23 | 93 | 1005.5 |
| 20260504172913 | 8 | 159 | 0.0 | 3.2 | 0.00 | 0.23 | 0.23 | 94 | 1005.6 |
| 20260504172408 | 8 | 89 | 1.6 | 3.2 | 0.00 | 0.23 | 0.23 | 94 | 1005.5 |
| 20260504171905 | 8 | 113 | 6.4 | 6.4 | 0.00 | 0.23 | 0.23 | 96 | 1005.4 |
| 20260504171402 | 8 | 102 | 3.2 | 4.8 | 0.00 | 0.23 | 0.23 | 96 | 1005.6 |
| 20260504170859 | 8 | 123 | 3.2 | 3.2 | 0.00 | 0.23 | 0.23 | 97 | 1005.4 |
| 20260504170355 | 7 | 86 | 1.6 | 3.2 | 0.00 | 0.23 | 0.23 | 98 | 1005.5 |
| 20260504160314 | 7 | 134 | 3.2 | 3.2 | 0.13 | 0.20 | 0.20 | 95 | 1005.6 |
| 20260504150739 | 10 | 221 | 0.0 | 9.7 | 0.00 | 0.00 | 0.00 | 75 | 1004.7 |
| 20260504150236 | 11 | 341 | 0.0 | 6.4 | 0.00 | 0.00 | 0.00 | 71 | 1004.4 |
| 20260504141205 | 10 | 150 | 3.2 | 4.8 | 0.00 | 0.00 | 0.00 | 76 | 1004.3 |
| 20260504140702 | 10 | 197 | 0.0 | 3.2 | 0.00 | 0.00 | 0.00 | 75 | 1004.4 |
| 20260504140157 | 10 | 223 | 1.6 | 4.8 | 0.00 | 0.00 | 0.00 | 75 | 1004.3 |
| 20260504130626 | 8 | 163 | 6.4 | 9.7 | 0.00 | 0.00 | 0.00 | 83 | 1004.8 |
| 20260504130123 | 8 | 220 | 1.6 | 9.7 | 0.00 | 0.00 | 0.00 | 83 | 1005.0 |
| 20260504110514 | 3 | 97 | 0.0 | 0.0 | 0.00 | 0.00 | 0.00 | 90 | 1006.0 |
| 20260504100436 | 2 | 126 | 0.0 | 0.0 | 0.00 | 0.00 | 0.00 | 89 | 1006.0 |
| 20260504081824 | 0 | 289 | 0.0 | 0.0 | 0.00 | 0.00 | 0.00 | 97 | 1005.8 |
| 20260504081320 | 0 | 250 | 1.6 | 3.2 | 0.00 | 0.00 | 0.00 | 97 | 1005.7 |
| 20260504080816 | 0 | 307 | 0.0 | 0.0 | 0.00 | 0.00 | 0.00 | 98 | 1005.8 |
| 20260504080313 | 0 | 304 | 0.0 | 0.0 | 0.00 | 0.00 | 0.00 | 98 | 1005.9 |
| 20260504070240 | 0 | 270 | 0.0 | 0.0 | 0.00 | 0.00 | 0.00 | 95 | 1005.9 |
| 20260504060201 | -1 | 240 | 4.8 | 4.8 | 0.00 | 0.00 | 0.00 | 92 | 1006.0 |
| 20260504050629 | 0 | 154 | 0.0 | 0.0 | 0.00 | 0.00 | 0.00 | 85 | 1006.0 |
| 20260504050126 | 0 | 163 | 0.0 | 1.6 | 0.00 | 0.00 | 0.00 | 89 | 1006.0 |
| 20260504045623 | 0 | 162 | 1.6 | 1.6 | 0.00 | 0.00 | 0.00 | 90 | 1006.2 |
| 20260504045118 | 0 | 145 | 1.6 | 1.6 | 0.00 | 0.00 | 0.00 | 88 | 1006.2 |
| 20260504044616 | 0 | 159 | 1.6 | 1.6 | 0.00 | 0.00 | 0.00 | 87 | 1005.9 |
| 20260504044112 | 0 | 104 | 0.0 | 0.0 | 0.00 | 0.00 | 0.00 | 88 | 1006.2 |
| 20260504043609 | 0 | 167 | 0.0 | 1.6 | 0.00 | 0.00 | 0.00 | 90 | 1006.2 |
| 20260504043107 | 0 | 135 | 1.6 | 1.6 | 0.00 | 0.00 | 0.00 | 88 | 1006.1 |
| 20260504042604 | 0 | 126 | 1.6 | 3.2 | 0.00 | 0.00 | 0.00 | 88 | 1006.2 |
| 20260504042100 | 0 | 123 | 3.2 | 3.2 | 0.00 | 0.00 | 0.00 | 89 | 1006.2 |
| 20260504041556 | 0 | 106 | 0.0 | 1.6 | 0.00 | 0.00 | 0.00 | 88 | 1006.2 |
| 20260504041053 | 0 | 115 | 0.0 | 0.0 | 0.00 | 0.00 | 0.00 | 89 | 1006.0 |
| 20260504040550 | 0 | 120 | 0.0 | 0.0 | 0.00 | 0.00 | 0.00 | 90 | 1006.1 |
| 20260504040047 | 0 | 106 | 0.0 | 0.0 | 0.00 | 0.48 | 0.48 | 92 | 1006.0 |
| 20260504035543 | 0 | 107 | 0.0 | 0.0 | 0.00 | 0.48 | 0.48 | 92 | 1006.0 |
| 20260504035040 | 0 | 104 | 0.0 | 0.0 | 0.00 | 0.48 | 0.48 | 92 | 1005.9 |
| 20260504034538 | -1 | 103 | 0.0 | 0.0 | 0.00 | 0.48 | 0.48 | 92 | 1005.9 |
| 20260504034034 | 0 | 120 | 0.0 | 0.0 | 0.00 | 0.48 | 0.48 | 92 | 1006.0 |
| 20260504033533 | -1 | 122 | 0.0 | 0.0 | 0.00 | 0.48 | 0.48 | 93 | 1006.0 |
| 20260504033030 | -1 | 107 | 0.0 | 0.0 | 0.00 | 0.48 | 0.48 | 93 | 1005.8 |
| 20260504032527 | -1 | 83 | 0.0 | 1.6 | 0.00 | 0.48 | 0.48 | 93 | 1006.0 |
| 20260504032023 | 0 | 82 | 0.0 | 0.0 | 0.00 | 0.48 | 0.48 | 92 | 1006.1 |
| 20260504031520 | 0 | 83 | 0.0 | 0.0 | 0.00 | 0.48 | 0.48 | 91 | 1006.0 |
| 20260504031016 | 0 | 135 | 0.0 | 1.6 | 0.00 | 0.48 | 0.48 | 90 | 1006.0 |
| 20260504030514 | 0 | 137 | 1.6 | 4.8 | 0.00 | 0.48 | 0.48 | 87 | 1006.1 |
| 20260504030010 | 0 | 166 | 1.6 | 3.2 | 0.00 | 0.48 | 0.48 | 92 | 1005.9 |
| 20260504025507 | 0 | 108 | 0.0 | 1.6 | 0.00 | 0.48 | 0.48 | 90 | 1006.1 |
| 20260504025004 | 0 | 88 | 0.0 | 0.0 | 0.00 | 0.48 | 0.48 | 92 | 1006.0 |
| 20260504024500 | 0 | 104 | 0.0 | 0.0 | 0.00 | 0.48 | 0.48 | 92 | 1006.0 |
| 20260504023958 | 0 | 146 | 0.0 | 0.0 | 0.00 | 0.48 | 0.48 | 91 | 1005.9 |
| 20260504023454 | 0 | 147 | 0.0 | 1.6 | 0.00 | 0.48 | 0.48 | 90 | 1005.9 |
| 20260504022950 | 0 | 132 | 1.6 | 1.6 | 0.00 | 0.48 | 0.48 | 90 | 1005.9 |
| 20260504022446 | 0 | 141 | 0.0 | 0.0 | 0.00 | 0.48 | 0.48 | 90 | 1006.0 |
| 20260504021943 | 0 | 179 | 0.0 | 0.0 | 0.00 | 0.48 | 0.48 | 94 | 1006.1 |
| 20260504021440 | 0 | 180 | 0.0 | 1.6 | 0.00 | 0.48 | 0.48 | 93 | 1006.0 |
| 20260504020937 | 1 | 180 | 0.0 | 1.6 | 0.00 | 0.48 | 0.48 | 90 | 1006.1 |
| 20260504020434 | 1 | 122 | 0.0 | 1.6 | 0.00 | 0.48 | 0.48 | 89 | 1006.0 |
| 20260504015931 | 0 | 86 | 0.0 | 0.0 | 0.00 | 0.48 | 0.48 | 91 | 1006.0 |
| 20260504015427 | 0 | 86 | 0.0 | 0.0 | 0.00 | 0.48 | 0.48 | 89 | 1006.1 |
| 20260504014923 | 0 | 86 | 0.0 | 0.0 | 0.00 | 0.48 | 0.48 | 89 | 1006.0 |
| 20260504014419 | 0 | 86 | 0.0 | 0.0 | 0.00 | 0.48 | 0.48 | 88 | 1005.9 |
| 20260504013916 | 0 | 86 | 0.0 | 0.0 | 0.00 | 0.48 | 0.48 | 88 | 1006.1 |
| 20260504013415 | 0 | 86 | 0.0 | 0.0 | 0.00 | 0.48 | 0.48 | 89 | 1006.1 |
| 20260504012910 | 0 | 86 | 0.0 | 0.0 | 0.00 | 0.48 | 0.48 | 88 | 1005.9 |
| 20260504012408 | 1 | 86 | 0.0 | 0.0 | 0.00 | 0.48 | 0.48 | 88 | 1006.1 |
| 20260504011905 | 1 | 86 | 0.0 | 0.0 | 0.00 | 0.48 | 0.48 | 87 | 1006.1 |
| 20260504011402 | 1 | 86 | 0.0 | 0.0 | 0.00 | 0.48 | 0.48 | 88 | 1005.8 |
| 20260504010858 | 1 | 86 | 0.0 | 0.0 | 0.00 | 0.48 | 0.48 | 85 | 1006.0 |
| 20260504010354 | 1 | 86 | 0.0 | 0.0 | 0.00 | 0.48 | 0.48 | 86 | 1006.0 |
| 20260504005850 | 1 | 86 | 0.0 | 0.0 | 0.00 | 0.48 | 0.48 | 87 | 1005.9 |
| 20260504005347 | 1 | 86 | 0.0 | 0.0 | 0.00 | 0.48 | 0.48 | 86 | 1005.9 |
| 20260504004845 | 2 | 86 | 0.0 | 1.6 | 0.00 | 0.48 | 0.48 | 85 | 1005.9 |
| 20260504004343 | 2 | 86 | 0.0 | 1.6 | 0.00 | 0.48 | 0.48 | 85 | 1005.9 |
| 20260504003839 | 2 | 54 | 0.0 | 0.0 | 0.00 | 0.48 | 0.48 | 84 | 1005.8 |
| 20260504003336 | 3 | 333 | 0.0 | 0.0 | 0.00 | 0.48 | 0.48 | 78 | 1005.7 |
| 20260504002832 | 3 | 332 | 0.0 | 0.0 | 0.00 | 0.48 | 0.48 | 76 | 1005.7 |
| 20260504002329 | 4 | 334 | 0.0 | 0.0 | 0.00 | 0.48 | 0.48 | 72 | 1005.7 |
| 20260504001827 | 4 | 339 | 1.6 | 3.2 | 0.00 | 0.48 | 0.48 | 71 | 1005.5 |
| 20260504001324 | 3 | 282 | 0.0 | 3.2 | 0.00 | 0.48 | 0.48 | 73 | 1005.6 |
| 20260504000821 | 4 | 354 | 1.6 | 1.6 | 0.00 | 0.48 | 0.48 | 71 | 1005.4 |
| 20260504000318 | 5 | 336 | 0.0 | 3.2 | 0.00 | 0.48 | 0.48 | 71 | 1005.4 |
| 20260503235815 | 5 | 331 | 0.0 | 3.2 | 0.00 | 0.48 | 0.48 | 68 | 1005.5 |
| 20260503235313 | 5 | 316 | 0.0 | 3.2 | 0.00 | 0.48 | 0.48 | 67 | 1005.5 |
| 20260503234810 | 5 | 296 | 4.8 | 6.4 | 0.00 | 0.48 | 0.48 | 67 | 1005.6 |
| 20260503234308 | 5 | 276 | 1.6 | 1.6 | 0.00 | 0.48 | 0.48 | 67 | 1005.4 |
| 20260503233806 | 5 | 338 | 0.0 | 0.0 | 0.00 | 0.48 | 0.48 | 67 | 1005.2 |
| 20260503233301 | 5 | 325 | 3.2 | 6.4 | 0.00 | 0.48 | 0.48 | 66 | 1005.6 |
| 20260503232758 | 5 | 300 | 1.6 | 3.2 | 0.00 | 0.48 | 0.48 | 67 | 1005.5 |
| 20260503232255 | 5 | 311 | 6.4 | 6.4 | 0.00 | 0.48 | 0.48 | 66 | 1005.5 |
| 20260503231753 | 5 | 294 | 3.2 | 4.8 | 0.00 | 0.48 | 0.48 | 66 | 1005.5 |
| 20260503231250 | 5 | 307 | 0.0 | 3.2 | 0.00 | 0.48 | 0.48 | 67 | 1005.2 |
| 20260503230745 | 5 | 331 | 1.6 | 3.2 | 0.00 | 0.48 | 0.48 | 68 | 1005.6 |
| 20260503230243 | 5 | 227 | 4.8 | 16.1 | 0.00 | 0.48 | 0.48 | 67 | 1005.1 |
| 20260503225741 | 6 | 308 | 1.6 | 11.3 | 0.00 | 0.48 | 0.48 | 66 | 1005.3 |
| 20260503225241 | 6 | 257 | 3.2 | 6.4 | 0.00 | 0.48 | 0.48 | 66 | 1005.3 |
| 20260503224738 | 6 | 265 | 8.0 | 9.7 | 0.00 | 0.48 | 0.48 | 65 | 1005.4 |
| 20260503224236 | 6 | 353 | 3.2 | 4.8 | 0.00 | 0.48 | 0.48 | 67 | 1005.4 |
| 20260503223733 | 6 | 272 | 1.6 | 6.4 | 0.00 | 0.48 | 0.48 | 66 | 1005.3 |
| 20260503223231 | 6 | 339 | 0.0 | 4.8 | 0.00 | 0.48 | 0.48 | 66 | 1005.3 |
| 20260503222727 | 6 | 292 | 3.2 | 9.7 | 0.00 | 0.48 | 0.48 | 66 | 1005.1 |
| 20260503222225 | 5 | 292 | 3.2 | 6.4 | 0.00 | 0.48 | 0.48 | 68 | 1005.3 |
| 20260503221723 | 5 | 329 | 0.0 | 4.8 | 0.00 | 0.48 | 0.48 | 71 | 1005.2 |
| 20260503221220 | 5 | 287 | 1.6 | 6.4 | 0.00 | 0.48 | 0.48 | 69 | 1005.2 |
| 20260503220716 | 5 | 303 | 4.8 | 9.7 | 0.00 | 0.48 | 0.48 | 69 | 1005.2 |
| 20260503220214 | 5 | 359 | 3.2 | 14.5 | 0.00 | 0.48 | 0.48 | 68 | 1005.3 |
| 20260503215711 | 5 | 278 | 9.7 | 11.3 | 0.00 | 0.48 | 0.48 | 68 | 1005.2 |
| 20260503215208 | 5 | 280 | 8.0 | 12.9 | 0.00 | 0.48 | 0.48 | 67 | 1005.1 |
| 20260503214706 | 5 | 1 | 9.7 | 16.1 | 0.00 | 0.48 | 0.48 | 68 | 1005.3 |
| 20260503214202 | 5 | 347 | 6.4 | 11.3 | 0.00 | 0.48 | 0.48 | 67 | 1005.3 |
| 20260503213700 | 5 | 326 | 9.7 | 14.5 | 0.00 | 0.48 | 0.48 | 67 | 1005.2 |
| 20260503213157 | 6 | 280 | 6.4 | 11.3 | 0.00 | 0.48 | 0.48 | 65 | 1005.2 |
| 20260503212654 | 6 | 291 | 8.0 | 12.9 | 0.00 | 0.48 | 0.48 | 62 | 1005.1 |
| 20260503212151 | 6 | 291 | 14.5 | 20.9 | 0.00 | 0.48 | 0.48 | 62 | 1004.9 |
| 20260503211649 | 6 | 309 | 9.7 | 14.5 | 0.00 | 0.48 | 0.48 | 61 | 1005.0 |
| 20260503211144 | 6 | 347 | 17.7 | 25.7 | 0.00 | 0.48 | 0.48 | 59 | 1005.1 |
| 20260503210641 | 6 | 303 | 8.0 | 12.9 | 0.00 | 0.48 | 0.48 | 60 | 1005.0 |
| 20260503210138 | 6 | 298 | 8.0 | 11.3 | 0.00 | 0.48 | 0.48 | 60 | 1004.9 |
| 20260503205633 | 6 | 300 | 6.4 | 12.9 | 0.00 | 0.48 | 0.48 | 61 | 1004.9 |
| 20260503205130 | 6 | 335 | 12.9 | 14.5 | 0.00 | 0.48 | 0.48 | 61 | 1005.0 |
| 20260503204627 | 6 | 285 | 4.8 | 12.9 | 0.00 | 0.48 | 0.48 | 63 | 1004.9 |
| 20260503204125 | 6 | 265 | 4.8 | 11.3 | 0.00 | 0.48 | 0.48 | 63 | 1005.1 |
| 20260503203621 | 6 | 273 | 8.0 | 20.9 | 0.00 | 0.48 | 0.48 | 64 | 1005.0 |
| 20260503203119 | 6 | 274 | 4.8 | 16.1 | 0.00 | 0.48 | 0.48 | 64 | 1004.9 |
| 20260503202616 | 6 | 3 | 1.6 | 14.5 | 0.00 | 0.48 | 0.48 | 66 | 1005.0 |
| 20260503202114 | 6 | 299 | 3.2 | 4.8 | 0.00 | 0.48 | 0.48 | 69 | 1005.0 |
| 20260503201612 | 6 | 331 | 4.8 | 14.5 | 0.00 | 0.48 | 0.48 | 67 | 1004.9 |
| 20260503201109 | 6 | 353 | 3.2 | 12.9 | 0.00 | 0.48 | 0.48 | 65 | 1004.7 |
| 20260503200605 | 6 | 353 | 9.7 | 17.7 | 0.00 | 0.48 | 0.48 | 63 | 1004.9 |
| 20260503195559 | 6 | 306 | 3.2 | 9.7 | 0.00 | 0.48 | 0.48 | 63 | 1005.0 |
| 20260503195055 | 6 | 332 | 11.3 | 14.5 | 0.00 | 0.48 | 0.48 | 60 | 1004.7 |